Regional Weather Roundup
Issued by NWS

Home | Current Version | Previous Version | Graphics & Text | Print | Product List | Glossary On
Versions: 1 2 3 4 5 6 7 8 9 10 11 12 13 14 15 16 17 18 19 20 21 22 23 24 25 26 27 28 29 30 31 32 33 34 35 36 37 38 39 40 41 42 43 44 45 46 47 48 49 50
000
ASUS45 KTFX 281404
RWRMT
MONTANA HOURLY WEATHER ROUNDUP
NATIONAL WEATHER SERVICE GREAT FALLS MT
804 AM MDT THU AUG 28 2014

NOTE: "FAIR" INDICATES FEW OR NO CLOUDS BELOW 12000 FEET WITH NO
SIGNIFICANT WEATHER AND/OR OBSTRUCTIONS TO VISIBILITY.

* THESE STATIONS ARE NOT UNDER NWS QUALITY CONTROL. THEY DO NOT
   REPORT WEATHER SUCH AS PRECIPITATION OR FOG.

MTZ001>007-043-281500-
WEST OF THE DIVIDE
CITY           SKY/WX    TMP DP  RH WIND       PRES   REMARKS
KALISPELL      PTSUNNY   50  48  93 CALM      30.00S
MISSOULA       PTCLDY    54  46  74 CALM      30.09S
BUTTE          SUNNY     45  41  86 SE3       30.21S
MULLAN PASS    SUNNY     55  45  69 VRB5      30.16R
* LINCOLN      N/A       39  38  96 N/A        N/A
* LOOKOUT PASS N/A       61  46  58 E2         N/A
* POLSON       N/A       62  44  52 SE1        N/A
* RONAN APT    PTCLDY    55  46  72 N/A        N/A
* SEELEY LAKE  N/A       40  39  96 E2         N/A
* THOMP F APT  SUNNY     48  41  77 NE3        N/A
$$

MTZ008-052>055-281500-
SOUTHWEST MONTANA
CITY           SKY/WX    TMP DP  RH WIND       PRES   REMARKS
BOZEMAN        SUNNY     52  46  80 SE6       30.16R
DILLON         SUNNY     52  43  72 S8        30.20R
W YELLOWSTONE  SUNNY     39  37  93 CALM      30.33R
* THREE FORKS  SUNNY     48  30  50 N/A        N/A
* BOULDER HILL N/A       54  39  57 SW10       N/A
* MONIDA PASS  N/A       46  40  80 N2         N/A
* RAYNOLDS PAS N/A       44  33  65 SW4        N/A
* WHITEHALL    N/A       49  44  83 N5G10      N/A
* WISE RIVER   N/A       39  37  93 W3         N/A
$$

MTZ009>010-012-014-046-048-049-054-281500-
EAST SLOPES AND CENTRAL MONTANA
CITY           SKY/WX    TMP DP  RH WIND       PRES   REMARKS
CUT BANK       PTSUNNY   63  46  54 N10       30.01R
GREAT FALLS    PTCLDY    64  46  52 SW7       30.02R
HELENA         SUNNY     57  48  72 CALM      30.11R
MALMSTROM AFB  SUNNY     64  48  56 SW8       30.03R
* CONRAD       PTSUNNY   59  52  78 S6         N/A
* EAST GLACIER N/A       62  44  52 W14        N/A
* MONARCH      N/A       56  39  53 S5         N/A
* PENDROY      N/A       65  47  52 W4         N/A
* ROGERS PASS  N/A       61  41  48 SE4G9      N/A
* SAINT MARY   N/A       54  45  72 SE4        N/A
* SWEET GRASS  N/A       54  54 100 N17G22     N/A
$$

MTZ011-013-016-021-035-040-045-047-050-051-281500-
NORTH CENTRAL MONTANA
CITY           SKY/WX    TMP DP  RH WIND       PRES   REMARKS
HAVRE          SUNNY     61  52  72 SW10      29.93R
LEWISTOWN      SUNNY     61  48  62 E3        30.05S
* CHESTER      N/A       51  46  83 N/A        N/A
* DENTON       N/A       58  48  70 S10        N/A
* GEYSER       N/A       64  44  48 N2         N/A
* JUDITH GAP   N/A       63  46  54 SW8        N/A
* LOMA         N/A       60  49  67 SW2        N/A
$$

MTZ017>020-022>027-061-062-281500-
NORTHEAST MONTANA
CITY           SKY/WX    TMP DP  RH WIND       PRES   REMARKS
GLASGOW        SUNNY     64  55  73 S3        29.89F
GLENDIVE       SUNNY     61  59  93 S7        29.95S
JORDAN         SUNNY     63  55  75 CALM      29.93F
SIDNEY         SUNNY     61  59  93 S9        29.92S
WOLF POINT     SUNNY     59  54  84 CALM      29.89F
* BEAVER HILL  N/A       63  57  81 S9         N/A
* CIRCLE       N/A       60  56  87 N/A        N/A
* LINDSAY DVD  N/A       68  51  55 W3         N/A
* NAVAJO       N/A       68  50  53 SW9        N/A
$$

MTZ028>042-056>058-281500-
SOUTHCENTRAL AND SOUTHEAST MONTANA
CITY           SKY/WX    TMP DP  RH WIND       PRES   REMARKS
BAKER          PTCLDY    61  59  93 S3        29.98S
BILLINGS       SUNNY     63  46  54 SW16      30.05R
LIVINGSTON     SUNNY     55  43  64 NW17      30.13R
MILES CITY     SUNNY     61  55  81 S5        29.96S
* LAUREL APT   SUNNY     55  45  69 SW5        N/A
* ROUNDUP APT  SUNNY     57  46  67 SW9        N/A
* ALZADA       N/A       56  55  96 W2         N/A
* HYSHAM       N/A       64  48  56 W8         N/A
* LAME DEER    N/A       64  49  58 W9         N/A
* REED POINT   N/A       53  46  77 W7         N/A
* ROSCOE HILL  N/A       65  31  28 S9         N/A
$$

REGIONAL REPORTS...DAKOTAS
CITY           SKY/WX    TMP DP  RH WIND       PRES   REMARKS
WILLISTON      SUNNY     64  59  84 S7        29.90S
DICKINSON      CLOUDY    61  57  87 CALM      29.94S
BEACH          N/A       63  63 100 CALM      29.96S
CROSBY         SUNNY     63  63 100 S12       29.88S
TIOGA          SUNNY     64  64 100 S6        29.94S
WATFORD CITY   SUNNY     63  59  87 CALM      29.89F
BISMARCK       FOG       64  63  97 CALM      29.95F VSB 2
GRAND FORKS    CLOUDY    64  61  90 S12       29.96S
FARGO          CLOUDY    66  61  84 SE10      29.98F
BUFFALO SD     PTSUNNY   59  57  93 CALM      29.93S
RAPID CITY     CLOUDY    64  61  90 CALM      30.00R
$$

REGIONAL REPORTS...WYOMING/IDAHO/WASHINGTON
CITY           SKY/WX    TMP DP  RH WIND       PRES   REMARKS
GILLETTE       PTSUNNY   63  52  68 CALM      30.06S
SHERIDAN       PTCLDY    63  48  58 CALM      30.06S
CODY           SUNNY     63  45  52 CALM      30.16R
YELLOWSTONE LA SUNNY     41  37  86 CALM      30.40S
SALMON         SUNNY     48  46  93 CALM      30.19S
MULLAN PASS    SUNNY     55  45  69 VRB5      30.16S
SAND POINT     SUNNY     54  54 100 SW5       29.96R
SPOKANE        SUNNY     61  52  72 S9        29.99R

$$



USA.gov is the U.S. government's official web portal to all federal, state and local government web resources and services.